Location: Dulzura
(32.6442°N, 116.7814°W)
Time: 19:18:32
(UTC+00:00)

Envisat - Pass Details

Date: 07 December 2021
Orbit: 764 x 766 km, 98.2° (Epoch: 17 January)

Event Time Altitude Azimuth Distance (km) Brightness Sun altitude
Rises 12:04:48 0° 23° (NNE) 3,234 6.4 -31.2°
Reaches altitude 10° 12:07:17 10° 32° (NNE) 2,304 5.7 -30.6°
Maximum altitude 12:11:56 36° 98° (E) 1,204 4.5 -29.7°
Drops below altitude 10° 12:16:33 10° 164° (SSE) 2,290 5.7 -28.7°
Sets 12:19:00 0° 173° (S) 3,212 6.4 -28.2°
